Volver al catálogo

COSMOS 2418

GLONASS

ActivoNavegaciónMEO
NORAD 28916·PAYLOAD·🇷🇺 Russia

Lanzado Dec 25, 2005 desde Baikonur Cosmodrome

Loading…

Próximos Pases (próximas 24 horas)

TLE

ActualizadoSource: Space-Track

Época: Sep 14, 2026, 07:56 UTC

1 28916U 05050B   26257.33105825 -.00000055  00000-0  00000-0 0  9996
2 28916  65.5369 313.2796 0013275 274.5121  86.4456  2.13106224161162

Sigue COSMOS 2418 en tiempo real con AllMySat

Download on the App Store